| time (UTC) | temp F | wind direction | speed MPH | gust MPH | rain 1hr in | rain 24hr in | rain mn in | humidity % | barometer mb |
| 20260903095527 | 59 | 280 | 0.0 | 2.0 | 0.00 | 0.00 | 0.00 | 73 | 1015.9 |
| 20260903095028 | 59 | 0 | 0.0 | 2.0 | 0.00 | 0.00 | 0.00 | 73 | 1016.0 |
| 20260903094551 | 59 | 262 | 0.0 | 3.0 | 0.00 | 0.00 | 0.00 | 73 | 1016.0 |
| 20260903094035 | 59 | 0 | 0.0 | 3.0 | 0.00 | 0.00 | 0.00 | 73 | 1016.1 |
| 20260903093528 | 59 | 0 | 0.0 | 4.0 | 0.00 | 0.00 | 0.00 | 73 | 1016.0 |
| 20260903093102 | 59 | 291 | 0.0 | 4.0 | 0.00 | 0.00 | 0.00 | 73 | 1016.1 |
| 20260903092530 | 59 | 342 | 0.0 | 4.0 | 0.00 | 0.00 | 0.00 | 73 | 1016.1 |
| 20260903092035 | 59 | 0 | 0.0 | 4.0 | 0.00 | 0.00 | 0.00 | 73 | 1016.2 |
| 20260903091552 | 59 | 279 | 0.0 | 4.0 | 0.00 | 0.00 | 0.00 | 73 | 1016.2 |
| 20260903091032 | 59 | 333 | 1.0 | 5.0 | 0.00 | 0.00 | 0.00 | 73 | 1016.2 |
| 20260903090530 | 59 | 0 | 0.0 | 5.0 | 0.00 | 0.00 | 0.00 | 73 | 1016.2 |
| 20260903090046 | 59 | 0 | 0.0 | 3.0 | 0.00 | 0.00 | 0.00 | 73 | 1016.2 |
| 20260903085529 | 59 | 0 | 0.0 | 3.0 | 0.00 | 0.00 | 0.00 | 73 | 1016.2 |
| 20260903085028 | 59 | 294 | 0.0 | 3.0 | 0.00 | 0.00 | 0.00 | 73 | 1016.2 |
| 20260903084546 | 59 | 0 | 0.0 | 2.0 | 0.00 | 0.00 | 0.00 | 73 | 1016.2 |
| 20260903084031 | 59 | 0 | 0.0 | 2.0 | 0.00 | 0.00 | 0.00 | 73 | 1016.2 |
| 20260903083529 | 59 | 0 | 0.0 | 2.0 | 0.00 | 0.00 | 0.00 | 72 | 1016.2 |
| 20260903083058 | 59 | 304 | 0.0 | 2.0 | 0.00 | 0.00 | 0.00 | 72 | 1016.3 |
| 20260903082531 | 59 | 269 | 0.0 | 2.0 | 0.00 | 0.00 | 0.00 | 72 | 1016.2 |
| 20260903082030 | 59 | 0 | 0.0 | 1.0 | 0.00 | 0.00 | 0.00 | 72 | 1016.2 |
| 20260903081611 | 59 | 0 | 0.0 | 3.0 | 0.00 | 0.00 | 0.00 | 72 | 1016.2 |
| 20260903081032 | 60 | 0 | 0.0 | 6.0 | 0.00 | 0.00 | 0.00 | 72 | 1016.2 |
| 20260903080535 | 60 | 0 | 0.0 | 6.0 | 0.00 | 0.00 | 0.00 | 72 | 1016.2 |
| 20260903080047 | 60 | 331 | 0.0 | 5.0 | 0.00 | 0.00 | 0.00 | 72 | 1016.2 |
| 20260903075530 | 60 | 333 | 0.0 | 5.0 | 0.00 | 0.00 | 0.00 | 72 | 1016.2 |
| 20260903075029 | 60 | 0 | 0.0 | 3.0 | 0.00 | 0.00 | 0.00 | 72 | 1016.3 |
| 20260903074555 | 60 | 0 | 0.0 | 3.0 | 0.00 | 0.00 | 0.00 | 72 | 1016.2 |
| 20260903074034 | 60 | 338 | 0.0 | 2.0 | 0.00 | 0.00 | 0.00 | 72 | 1016.2 |
| 20260903073529 | 60 | 285 | 0.0 | 1.0 | 0.00 | 0.00 | 0.00 | 71 | 1016.3 |
| 20260903073051 | 60 | 0 | 0.0 | 1.0 | 0.00 | 0.00 | 0.00 | 71 | 1016.3 |
| 20260903072531 | 60 | 0 | 0.0 | 2.0 | 0.00 | 0.00 | 0.00 | 71 | 1016.3 |
| 20260903072031 | 60 | 0 | 0.0 | 2.0 | 0.00 | 0.00 | 0.00 | 71 | 1016.4 |
| 20260903071555 | 60 | 285 | 0.0 | 2.0 | 0.00 | 0.00 | 0.00 | 71 | 1016.4 |
| 20260903071031 | 60 | 0 | 0.0 | 2.0 | 0.00 | 0.00 | 0.00 | 71 | 1016.4 |
| 20260903070531 | 60 | 0 | 0.0 | 2.0 | 0.00 | 0.00 | 0.00 | 70 | 1016.3 |
| 20260903070048 | 60 | 0 | 0.0 | 2.0 | 0.00 | 0.00 | 0.00 | 70 | 1016.3 |
| 20260903065530 | 60 | 0 | 0.0 | 2.0 | 0.00 | 0.00 | 0.00 | 70 | 1016.3 |
| 20260903065029 | 60 | 273 | 0.0 | 2.0 | 0.00 | 0.00 | 0.00 | 70 | 1016.3 |
| 20260903064547 | 60 | 0 | 0.0 | 1.0 | 0.00 | 0.00 | 0.00 | 70 | 1016.3 |
| 20260903064032 | 60 | 0 | 0.0 | 1.0 | 0.00 | 0.00 | 0.00 | 70 | 1016.3 |
| 20260903063527 | 60 | 0 | 0.0 | 1.0 | 0.00 | 0.00 | 0.00 | 70 | 1016.4 |
| 20260903063048 | 60 | 0 | 0.0 | 1.0 | 0.00 | 0.00 | 0.00 | 70 | 1016.4 |
| 20260903062529 | 60 | 273 | 0.0 | 1.0 | 0.00 | 0.00 | 0.00 | 70 | 1016.5 |
| 20260903062031 | 60 | 0 | 0.0 | 1.0 | 0.00 | 0.00 | 0.00 | 70 | 1016.5 |
| 20260903061550 | 61 | 0 | 0.0 | 1.0 | 0.00 | 0.00 | 0.00 | 70 | 1016.5 |
| 20260903061030 | 61 | 283 | 0.0 | 1.0 | 0.00 | 0.00 | 0.00 | 70 | 1016.5 |
| 20260903060530 | 61 | 0 | 0.0 | 1.0 | 0.00 | 0.00 | 0.00 | 69 | 1016.4 |
| 20260903060045 | 61 | 0 | 0.0 | 2.0 | 0.00 | 0.00 | 0.00 | 69 | 1016.5 |
| 20260903055530 | 61 | 0 | 0.0 | 2.0 | 0.00 | 0.00 | 0.00 | 69 | 1016.6 |
| 20260903055029 | 61 | 0 | 0.0 | 2.0 | 0.00 | 0.00 | 0.00 | 68 | 1016.6 |
| 20260903054543 | 62 | 0 | 0.0 | 3.0 | 0.00 | 0.00 | 0.00 | 69 | 1016.6 |
| 20260903054028 | 62 | 0 | 0.0 | 3.0 | 0.00 | 0.00 | 0.00 | 68 | 1016.6 |
| 20260903053528 | 62 | 333 | 0.0 | 2.0 | 0.00 | 0.00 | 0.00 | 69 | 1016.7 |
| 20260903053049 | 62 | 0 | 0.0 | 0.0 | 0.00 | 0.00 | 0.00 | 68 | 1016.7 |
| 20260903052530 | 62 | 0 | 0.0 | 2.0 | 0.00 | 0.00 | 0.00 | 67 | 1016.8 |
| 20260903052031 | 62 | 0 | 0.0 | 2.0 | 0.00 | 0.00 | 0.00 | 67 | 1016.8 |
| 20260903051548 | 62 | 0 | 0.0 | 2.0 | 0.00 | 0.00 | 0.00 | 67 | 1016.8 |
| 20260903051030 | 63 | 0 | 0.0 | 2.0 | 0.00 | 0.00 | 0.00 | 67 | 1016.8 |
| 20260903050528 | 63 | 337 | 1.0 | 3.0 | 0.00 | 0.00 | 0.00 | 67 | 1016.8 |
| 20260903050058 | 63 | 336 | 1.0 | 3.0 | 0.00 | 0.00 | 0.00 | 67 | 1016.7 |
| 20260903045532 | 63 | 331 | 1.0 | 3.0 | 0.00 | 0.00 | 0.00 | 67 | 1016.8 |
| 20260903045028 | 63 | 331 | 0.0 | 3.0 | 0.00 | 0.00 | 0.00 | 67 | 1016.8 |
| 20260903044551 | 63 | 0 | 0.0 | 2.0 | 0.00 | 0.00 | 0.00 | 67 | 1016.8 |
| 20260903044028 | 63 | 0 | 0.0 | 2.0 | 0.00 | 0.00 | 0.00 | 67 | 1016.8 |
| 20260903043528 | 63 | 0 | 0.0 | 2.0 | 0.00 | 0.00 | 0.00 | 67 | 1016.8 |
| 20260903043047 | 63 | 0 | 0.0 | 2.0 | 0.00 | 0.00 | 0.00 | 67 | 1016.7 |
| 20260903042530 | 63 | 0 | 0.0 | 2.0 | 0.00 | 0.00 | 0.00 | 68 | 1016.7 |
| 20260903042030 | 63 | 306 | 0.0 | 1.0 | 0.00 | 0.00 | 0.00 | 67 | 1016.7 |
| 20260903041547 | 63 | 0 | 0.0 | 0.0 | 0.00 | 0.00 | 0.00 | 67 | 1016.6 |
| 20260903041028 | 63 | 0 | 0.0 | 0.0 | 0.00 | 0.00 | 0.00 | 66 | 1016.6 |
| 20260903040529 | 64 | 0 | 0.0 | 1.0 | 0.00 | 0.00 | 0.00 | 66 | 1016.6 |
| 20260903040054 | 64 | 0 | 0.0 | 1.0 | 0.00 | 0.00 | 0.00 | 65 | 1016.6 |
| 20260903035533 | 64 | 0 | 0.0 | 1.0 | 0.00 | 0.00 | 0.00 | 65 | 1016.5 |
| 20260903035028 | 64 | 0 | 0.0 | 1.0 | 0.00 | 0.00 | 0.00 | 65 | 1016.5 |
| 20260903034548 | 64 | 0 | 0.0 | 0.0 | 0.00 | 0.00 | 0.00 | 64 | 1016.3 |
| 20260903034027 | 64 | 0 | 0.0 | 0.0 | 0.00 | 0.00 | 0.00 | 64 | 1016.2 |
| 20260903033527 | 65 | 0 | 0.0 | 2.0 | 0.00 | 0.00 | 0.00 | 63 | 1016.2 |
| 20260903033047 | 65 | 0 | 0.0 | 3.0 | 0.00 | 0.00 | 0.00 | 63 | 1016.2 |
| 20260903032532 | 65 | 0 | 0.0 | 3.0 | 0.00 | 0.00 | 0.00 | 63 | 1016.2 |
| 20260903032030 | 65 | 10 | 0.0 | 3.0 | 0.00 | 0.00 | 0.00 | 63 | 1016.2 |
| 20260903031547 | 65 | 0 | 0.0 | 3.0 | 0.00 | 0.00 | 0.00 | 62 | 1016.1 |
| 20260903031030 | 65 | 352 | 1.0 | 3.0 | 0.00 | 0.00 | 0.00 | 62 | 1016.0 |
| 20260903030531 | 66 | 22 | 0.0 | 4.0 | 0.00 | 0.00 | 0.00 | 61 | 1016.0 |
| 20260903030055 | 66 | 0 | 1.0 | 5.0 | 0.00 | 0.00 | 0.00 | 61 | 1015.9 |
| 20260903025534 | 66 | 5 | 1.0 | 5.0 | 0.00 | 0.00 | 0.00 | 60 | 1015.9 |
| 20260903025030 | 66 | 351 | 2.0 | 5.0 | 0.00 | 0.00 | 0.00 | 60 | 1015.9 |
| 20260903024548 | 67 | 331 | 2.0 | 5.0 | 0.00 | 0.00 | 0.00 | 59 | 1016.1 |
| 20260903024033 | 67 | 325 | 2.0 | 5.0 | 0.00 | 0.00 | 0.00 | 59 | 1016.0 |
| 20260903023537 | 67 | 352 | 2.0 | 7.0 | 0.00 | 0.00 | 0.00 | 58 | 1016.1 |
| 20260903023044 | 67 | 315 | 1.0 | 7.0 | 0.00 | 0.00 | 0.00 | 58 | 1016.1 |
| 20260903022529 | 68 | 329 | 2.0 | 5.0 | 0.00 | 0.00 | 0.00 | 57 | 1016.2 |
| 20260903022028 | 68 | 0 | 1.0 | 6.0 | 0.00 | 0.00 | 0.00 | 57 | 1016.2 |
| 20260903021552 | 68 | 53 | 2.0 | 6.0 | 0.00 | 0.00 | 0.00 | 57 | 1016.2 |
| 20260903021031 | 68 | 0 | 1.0 | 7.0 | 0.00 | 0.00 | 0.00 | 57 | 1016.2 |
| 20260903020531 | 68 | 0 | 1.0 | 8.0 | 0.00 | 0.00 | 0.00 | 57 | 1016.3 |
| 20260903020104 | 69 | 72 | 1.0 | 9.0 | 0.00 | 0.00 | 0.00 | 56 | 1016.2 |
| 20260903015530 | 69 | 77 | 2.0 | 10.0 | 0.00 | 0.00 | 0.00 | 55 | 1016.2 |
| 20260903015029 | 69 | 331 | 3.0 | 12.0 | 0.00 | 0.00 | 0.00 | 55 | 1016.2 |
| 20260903014552 | 69 | 5 | 6.0 | 12.0 | 0.00 | 0.00 | 0.00 | 54 | 1016.2 |
| 20260903014030 | 69 | 5 | 3.0 | 9.0 | 0.00 | 0.00 | 0.00 | 54 | 1016.3 |
| 20260903013528 | 69 | 329 | 2.0 | 11.0 | 0.00 | 0.00 | 0.00 | 55 | 1016.3 |
| 20260903013050 | 69 | 333 | 5.0 | 11.0 | 0.00 | 0.00 | 0.00 | 55 | 1016.3 |
| 20260903012527 | 69 | 9 | 6.0 | 11.0 | 0.00 | 0.00 | 0.00 | 55 | 1016.3 |
| 20260903012032 | 69 | 19 | 3.0 | 9.0 | 0.00 | 0.00 | 0.00 | 55 | 1016.3 |
| 20260903011542 | 69 | 29 | 1.0 | 10.0 | 0.00 | 0.00 | 0.00 | 55 | 1016.4 |
| 20260903011030 | 70 | 340 | 4.0 | 10.0 | 0.00 | 0.00 | 0.00 | 54 | 1016.4 |
| 20260903010531 | 70 | 319 | 5.0 | 10.0 | 0.00 | 0.00 | 0.00 | 54 | 1016.4 |
| 20260903010052 | 71 | 74 | 1.0 | 10.0 | 0.00 | 0.00 | 0.00 | 53 | 1016.3 |
| 20260903005532 | 71 | 302 | 2.0 | 10.0 | 0.00 | 0.00 | 0.00 | 54 | 1016.4 |
| 20260903005032 | 71 | 11 | 4.0 | 10.0 | 0.00 | 0.00 | 0.00 | 53 | 1016.4 |
| 20260903004550 | 71 | 19 | 2.0 | 7.0 | 0.00 | 0.00 | 0.00 | 54 | 1016.4 |
| 20260903004033 | 70 | 49 | 1.0 | 8.0 | 0.00 | 0.00 | 0.00 | 55 | 1016.5 |
| 20260903003528 | 70 | 333 | 2.0 | 8.0 | 0.00 | 0.00 | 0.00 | 54 | 1016.5 |
| 20260903003047 | 70 | 346 | 1.0 | 6.0 | 0.00 | 0.00 | 0.00 | 53 | 1016.5 |
| 20260903002530 | 71 | 338 | 2.0 | 6.0 | 0.00 | 0.00 | 0.00 | 52 | 1016.5 |
| 20260903002030 | 71 | 92 | 1.0 | 6.0 | 0.00 | 0.00 | 0.00 | 53 | 1016.6 |
| 20260903001559 | 71 | 36 | 1.0 | 10.0 | 0.00 | 0.00 | 0.00 | 53 | 1016.6 |
| 20260903001029 | 71 | 348 | 3.0 | 10.0 | 0.00 | 0.00 | 0.00 | 51 | 1016.6 |
| 20260903000529 | 71 | 352 | 2.0 | 10.0 | 0.00 | 0.00 | 0.00 | 52 | 1016.7 |
| 20260903000057 | 71 | 344 | 3.0 | 9.0 | 0.00 | 0.00 | 0.00 | 51 | 1016.6 |
| 20260902235531 | 71 | 323 | 2.0 | 9.0 | 0.00 | 0.00 | 0.00 | 51 | 1016.8 |
| 20260902235030 | 72 | 269 | 3.0 | 9.0 | 0.00 | 0.00 | 0.00 | 50 | 1016.7 |
| 20260902234548 | 73 | 5 | 3.0 | 13.0 | 0.00 | 0.00 | 0.00 | 49 | 1016.8 |
| 20260902234033 | 74 | 312 | 5.0 | 13.0 | 0.00 | 0.00 | 0.00 | 48 | 1016.8 |
| 20260902233528 | 74 | 85 | 2.0 | 6.0 | 0.00 | 0.00 | 0.00 | 49 | 1016.8 |
| 20260902233057 | 74 | 325 | 1.0 | 7.0 | 0.00 | 0.00 | 0.00 | 49 | 1016.8 |
| 20260902232534 | 74 | 318 | 2.0 | 9.0 | 0.00 | 0.00 | 0.00 | 49 | 1016.8 |
| 20260902232029 | 74 | 346 | 3.0 | 9.0 | 0.00 | 0.00 | 0.00 | 49 | 1016.8 |
| 20260902231555 | 75 | 39 | 3.0 | 9.0 | 0.00 | 0.00 | 0.00 | 48 | 1016.8 |
| 20260902231029 | 74 | 349 | 4.0 | 10.0 | 0.00 | 0.00 | 0.00 | 50 | 1016.9 |
| 20260902230529 | 72 | 21 | 3.0 | 10.0 | 0.00 | 0.00 | 0.00 | 51 | 1017.1 |
| 20260902230050 | 71 | 99 | 1.0 | 5.0 | 0.00 | 0.00 | 0.00 | 53 | 1017.1 |
| 20260902225528 | 71 | 106 | 1.0 | 9.0 | 0.00 | 0.00 | 0.00 | 53 | 1017.2 |
| 20260902225031 | 72 | 86 | 1.0 | 9.0 | 0.00 | 0.00 | 0.00 | 53 | 1017.3 |
| 20260902224548 | 71 | 48 | 2.0 | 9.0 | 0.00 | 0.00 | 0.00 | 55 | 1017.2 |
| 20260902224033 | 70 | 136 | 2.0 | 7.0 | 0.00 | 0.00 | 0.00 | 56 | 1017.3 |
| 20260902223528 | 70 | 135 | 3.0 | 10.0 | 0.00 | 0.00 | 0.00 | 55 | 1017.3 |
| 20260902223046 | 69 | 77 | 3.0 | 10.0 | 0.00 | 0.00 | 0.00 | 57 | 1017.3 |
| 20260902222531 | 70 | 144 | 2.0 | 10.0 | 0.00 | 0.00 | 0.00 | 56 | 1017.2 |
| 20260902222031 | 70 | 137 | 1.0 | 10.0 | 0.00 | 0.00 | 0.00 | 57 | 1017.3 |
| 20260902221610 | 70 | 84 | 3.0 | 10.0 | 0.00 | 0.00 | 0.00 | 56 | 1017.4 |
| 20260902221032 | 70 | 80 | 2.0 | 7.0 | 0.00 | 0.00 | 0.00 | 56 | 1017.4 |
| 20260902220531 | 70 | 327 | 2.0 | 6.0 | 0.00 | 0.00 | 0.00 | 56 | 1017.4 |
| 20260902220101 | 71 | 86 | 2.0 | 12.0 | 0.00 | 0.00 | 0.00 | 55 | 1017.4 |
| 20260902215531 | 71 | 46 | 2.0 | 12.0 | 0.00 | 0.00 | 0.00 | 56 | 1017.4 |
| 20260902215030 | 70 | 5 | 3.0 | 8.0 | 0.00 | 0.00 | 0.00 | 57 | 1017.4 |
| 20260902214551 | 70 | 115 | 2.0 | 8.0 | 0.00 | 0.00 | 0.00 | 58 | 1017.5 |
| 20260902214031 | 70 | 19 | 2.0 | 9.0 | 0.00 | 0.00 | 0.00 | 58 | 1017.5 |
| 20260902213533 | 70 | 0 | 1.0 | 11.0 | 0.00 | 0.00 | 0.00 | 58 | 1017.6 |
| 20260902213053 | 71 | 142 | 4.0 | 11.0 | 0.00 | 0.00 | 0.00 | 56 | 1017.6 |
| 20260902212530 | 71 | 5 | 3.0 | 11.0 | 0.00 | 0.00 | 0.00 | 56 | 1017.7 |
| 20260902212030 | 70 | 65 | 1.0 | 11.0 | 0.00 | 0.00 | 0.00 | 59 | 1017.5 |
| 20260902211553 | 70 | 265 | 3.0 | 12.0 | 0.00 | 0.00 | 0.00 | 57 | 1017.7 |
| 20260902211029 | 70 | 26 | 5.0 | 12.0 | 0.00 | 0.00 | 0.00 | 56 | 1017.7 |
| 20260902210530 | 70 | 208 | 2.0 | 8.0 | 0.00 | 0.00 | 0.00 | 58 | 1017.7 |
| 20260902210053 | 69 | 130 | 2.0 | 8.0 | 0.00 | 0.00 | 0.00 | 59 | 1017.7 |
| 20260902205529 | 69 | 136 | 3.0 | 8.0 | 0.00 | 0.00 | 0.00 | 60 | 1017.7 |
| 20260902205032 | 70 | 107 | 1.0 | 10.0 | 0.00 | 0.00 | 0.00 | 57 | 1017.7 |
| 20260902204608 | 71 | 96 | 2.0 | 10.0 | 0.00 | 0.00 | 0.00 | 57 | 1017.7 |
| 20260902204028 | 70 | 286 | 4.0 | 10.0 | 0.00 | 0.00 | 0.00 | 57 | 1017.9 |
| 20260902203531 | 70 | 299 | 3.0 | 10.0 | 0.00 | 0.00 | 0.00 | 59 | 1017.9 |
| 20260902203050 | 68 | 55 | 1.0 | 5.0 | 0.00 | 0.00 | 0.00 | 62 | 1017.8 |
| 20260902202531 | 67 | 65 | 1.0 | 9.0 | 0.00 | 0.00 | 0.00 | 61 | 1017.9 |
| 20260902202030 | 68 | 101 | 1.0 | 9.0 | 0.00 | 0.00 | 0.00 | 60 | 1017.9 |
| 20260902201545 | 68 | 57 | 2.0 | 9.0 | 0.00 | 0.00 | 0.00 | 61 | 1017.9 |
| 20260902201034 | 68 | 183 | 2.0 | 8.0 | 0.00 | 0.00 | 0.00 | 59 | 1018.0 |
| 20260902200533 | 69 | 105 | 0.0 | 8.0 | 0.00 | 0.00 | 0.00 | 59 | 1018.0 |
| 20260902200052 | 69 | 167 | 2.0 | 10.0 | 0.00 | 0.00 | 0.00 | 59 | 1018.1 |
| 20260902195529 | 68 | 0 | 2.0 | 10.0 | 0.00 | 0.00 | 0.00 | 60 | 1018.1 |
| 20260902195029 | 68 | 350 | 3.0 | 10.0 | 0.00 | 0.00 | 0.00 | 60 | 1018.1 |
| 20260902194556 | 68 | 5 | 2.0 | 9.0 | 0.00 | 0.00 | 0.00 | 60 | 1018.0 |
| 20260902194026 | 68 | 86 | 0.0 | 6.0 | 0.00 | 0.00 | 0.00 | 62 | 1018.0 |
| 20260902193530 | 67 | 336 | 0.0 | 10.0 | 0.00 | 0.00 | 0.00 | 62 | 1018.2 |
| 20260902193047 | 67 | 352 | 2.0 | 10.0 | 0.00 | 0.00 | 0.00 | 60 | 1018.3 |
| 20260902192530 | 67 | 352 | 3.0 | 9.0 | 0.00 | 0.00 | 0.00 | 61 | 1018.4 |
| 20260902192028 | 67 | 98 | 2.0 | 8.0 | 0.00 | 0.00 | 0.00 | 62 | 1018.4 |
| 20260902191553 | 67 | 312 | 0.0 | 8.0 | 0.00 | 0.00 | 0.00 | 62 | 1018.5 |
| 20260902191028 | 67 | 343 | 3.0 | 8.0 | 0.00 | 0.00 | 0.00 | 61 | 1018.5 |
| 20260902190529 | 67 | 352 | 3.0 | 9.0 | 0.00 | 0.00 | 0.00 | 61 | 1018.5 |
| 20260902190052 | 67 | 102 | 2.0 | 10.0 | 0.00 | 0.00 | 0.00 | 62 | 1018.6 |
| 20260902185530 | 67 | 360 | 2.0 | 10.0 | 0.00 | 0.00 | 0.00 | 62 | 1018.6 |
| 20260902185030 | 67 | 5 | 1.0 | 8.0 | 0.00 | 0.00 | 0.00 | 62 | 1018.7 |
| 20260902184548 | 67 | 334 | 1.0 | 8.0 | 0.00 | 0.00 | 0.00 | 63 | 1018.5 |
| 20260902184030 | 67 | 323 | 3.0 | 8.0 | 0.00 | 0.00 | 0.00 | 62 | 1018.5 |
| 20260902183530 | 66 | 332 | 1.0 | 8.0 | 0.00 | 0.00 | 0.00 | 62 | 1018.5 |
| 20260902183112 | 66 | 0 | 2.0 | 8.0 | 0.00 | 0.00 | 0.00 | 62 | 1018.5 |
| 20260902182531 | 66 | 360 | 4.0 | 8.0 | 0.00 | 0.00 | 0.00 | 62 | 1018.5 |
| 20260902182031 | 66 | 75 | 0.0 | 7.0 | 0.00 | 0.00 | 0.00 | 63 | 1018.4 |
| 20260902181544 | 66 | 0 | 3.0 | 7.0 | 0.00 | 0.00 | 0.00 | 62 | 1018.4 |
| 20260902181031 | 66 | 54 | 1.0 | 7.0 | 0.00 | 0.00 | 0.00 | 63 | 1018.5 |
| 20260902180529 | 65 | 300 | 2.0 | 6.0 | 0.00 | 0.00 | 0.00 | 63 | 1018.4 |
| 20260902180050 | 65 | 140 | 1.0 | 5.0 | 0.00 | 0.00 | 0.00 | 63 | 1018.5 |
| 20260902175530 | 65 | 36 | 1.0 | 8.0 | 0.00 | 0.00 | 0.00 | 62 | 1018.5 |
| 20260902175027 | 65 | 39 | 1.0 | 8.0 | 0.00 | 0.00 | 0.00 | 63 | 1018.4 |
| 20260902174546 | 65 | 342 | 4.0 | 8.0 | 0.00 | 0.00 | 0.00 | 63 | 1018.5 |
| 20260902174029 | 65 | 11 | 4.0 | 8.0 | 0.00 | 0.00 | 0.00 | 65 | 1018.5 |
| 20260902173529 | 64 | 360 | 2.0 | 8.0 | 0.00 | 0.00 | 0.00 | 65 | 1018.4 |
| 20260902173056 | 64 | 306 | 1.0 | 5.0 | 0.00 | 0.00 | 0.00 | 65 | 1018.5 |
| 20260902172529 | 64 | 314 | 1.0 | 9.0 | 0.00 | 0.00 | 0.00 | 65 | 1018.4 |
| 20260902172030 | 64 | 341 | 2.0 | 9.0 | 0.00 | 0.00 | 0.00 | 65 | 1018.3 |
| 20260902171610 | 63 | 348 | 3.0 | 9.0 | 0.00 | 0.00 | 0.00 | 65 | 1018.2 |
| 20260902171028 | 63 | 30 | 1.0 | 7.0 | 0.00 | 0.00 | 0.00 | 66 | 1018.2 |
| 20260902170534 | 62 | 323 | 2.0 | 8.0 | 0.00 | 0.00 | 0.00 | 66 | 1018.2 |
| 20260902170050 | 62 | 34 | 2.0 | 8.0 | 0.00 | 0.00 | 0.00 | 65 | 1018.2 |
| 20260902165530 | 62 | 5 | 2.0 | 5.0 | 0.00 | 0.00 | 0.00 | 65 | 1018.2 |
| 20260902165030 | 62 | 268 | 1.0 | 8.0 | 0.00 | 0.00 | 0.00 | 65 | 1018.2 |
| 20260902164557 | 62 | 342 | 1.0 | 8.0 | 0.00 | 0.00 | 0.00 | 64 | 1018.1 |
| 20260902164030 | 62 | 352 | 1.0 | 5.0 | 0.00 | 0.00 | 0.00 | 64 | 1018.1 |
| 20260902163533 | 61 | 0 | 0.0 | 8.0 | 0.00 | 0.00 | 0.00 | 66 | 1017.9 |
| 20260902163051 | 60 | 352 | 1.0 | 8.0 | 0.00 | 0.00 | 0.00 | 67 | 1018.0 |
| 20260902162529 | 60 | 315 | 1.0 | 7.0 | 0.00 | 0.00 | 0.00 | 68 | 1018.0 |
| 20260902162032 | 60 | 0 | 2.0 | 6.0 | 0.00 | 0.00 | 0.00 | 67 | 1018.0 |
| 20260902161550 | 60 | 349 | 1.0 | 4.0 | 0.00 | 0.00 | 0.00 | 66 | 1018.0 |
| 20260902161030 | 60 | 0 | 0.0 | 3.0 | 0.00 | 0.00 | 0.00 | 67 | 1018.1 |
| 20260902160529 | 60 | 0 | 0.0 | 6.0 | 0.00 | 0.00 | 0.00 | 69 | 1018.2 |
| 20260902160047 | 59 | 338 | 1.0 | 6.0 | 0.00 | 0.00 | 0.00 | 69 | 1018.1 |
| 20260902155529 | 58 | 340 | 0.0 | 5.0 | 0.00 | 0.00 | 0.00 | 69 | 1018.1 |
| 20260902155028 | 58 | 339 | 1.0 | 3.0 | 0.00 | 0.00 | 0.00 | 69 | 1018.1 |
| 20260902154552 | 58 | 333 | 0.0 | 3.0 | 0.00 | 0.00 | 0.00 | 71 | 1018.1 |
| 20260902154033 | 57 | 0 | 0.0 | 2.0 | 0.00 | 0.00 | 0.00 | 72 | 1018.1 |
| 20260902153530 | 57 | 0 | 0.0 | 2.0 | 0.00 | 0.00 | 0.00 | 71 | 1018.0 |
| 20260902153049 | 56 | 0 | 0.0 | 2.0 | 0.00 | 0.00 | 0.00 | 72 | 1018.0 |
| 20260902152528 | 56 | 0 | 0.0 | 1.0 | 0.00 | 0.00 | 0.00 | 73 | 1017.9 |
| 20260902152031 | 56 | 0 | 0.0 | 1.0 | 0.00 | 0.00 | 0.00 | 73 | 1017.9 |
| 20260902151549 | 56 | 0 | 0.0 | 2.0 | 0.00 | 0.00 | 0.00 | 74 | 1017.9 |
| 20260902151030 | 56 | 0 | 0.0 | 2.0 | 0.00 | 0.00 | 0.00 | 74 | 1017.9 |
| 20260902150529 | 55 | 0 | 0.0 | 2.0 | 0.00 | 0.00 | 0.00 | 75 | 1017.9 |
| 20260902150048 | 55 | 0 | 0.0 | 2.0 | 0.00 | 0.00 | 0.00 | 75 | 1017.8 |
| 20260902145529 | 55 | 0 | 0.0 | 2.0 | 0.00 | 0.00 | 0.00 | 76 | 1017.7 |
| 20260902145031 | 55 | 271 | 0.0 | 2.0 | 0.00 | 0.00 | 0.00 | 76 | 1017.6 |
| 20260902144543 | 55 | 293 | 0.0 | 2.0 | 0.00 | 0.00 | 0.00 | 77 | 1017.6 |
| 20260902144028 | 55 | 0 | 0.0 | 2.0 | 0.00 | 0.00 | 0.00 | 78 | 1017.5 |
| 20260902143529 | 55 | 0 | 0.0 | 2.0 | 0.00 | 0.00 | 0.00 | 78 | 1017.5 |
| 20260902143050 | 54 | 253 | 0.0 | 2.0 | 0.00 | 0.00 | 0.00 | 79 | 1017.6 |
| 20260902142529 | 54 | 0 | 0.0 | 2.0 | 0.00 | 0.00 | 0.00 | 79 | 1017.6 |
| 20260902142027 | 54 | 0 | 0.0 | 2.0 | 0.00 | 0.00 | 0.00 | 79 | 1017.7 |
| 20260902141554 | 54 | 0 | 0.0 | 2.0 | 0.00 | 0.00 | 0.00 | 80 | 1017.6 |
| 20260902141027 | 54 | 0 | 0.0 | 2.0 | 0.00 | 0.00 | 0.00 | 80 | 1017.6 |
| 20260902140528 | 54 | 0 | 0.0 | 1.0 | 0.00 | 0.00 | 0.00 | 81 | 1017.5 |
| 20260902140047 | 54 | 0 | 0.0 | 1.0 | 0.00 | 0.00 | 0.00 | 81 | 1017.5 |
| 20260902135528 | 54 | 0 | 0.0 | 2.0 | 0.00 | 0.00 | 0.00 | 81 | 1017.5 |
| 20260902135029 | 53 | 0 | 0.0 | 3.0 | 0.00 | 0.00 | 0.00 | 82 | 1017.5 |
| 20260902134554 | 53 | 0 | 0.0 | 3.0 | 0.00 | 0.00 | 0.00 | 82 | 1017.4 |
| 20260902134029 | 53 | 0 | 0.0 | 2.0 | 0.00 | 0.00 | 0.00 | 82 | 1017.3 |
| 20260902133533 | 53 | 0 | 0.0 | 2.0 | 0.00 | 0.00 | 0.00 | 82 | 1017.3 |
| 20260902133048 | 53 | 275 | 0.0 | 2.0 | 0.00 | 0.00 | 0.00 | 82 | 1017.2 |
| 20260902132531 | 53 | 290 | 0.0 | 2.0 | 0.00 | 0.00 | 0.00 | 82 | 1017.1 |
| 20260902132030 | 53 | 0 | 0.0 | 2.0 | 0.00 | 0.00 | 0.00 | 82 | 1017.1 |
| 20260902131605 | 53 | 0 | 0.0 | 2.0 | 0.00 | 0.00 | 0.00 | 83 | 1017.0 |
| 20260902131027 | 53 | 254 | 0.0 | 2.0 | 0.00 | 0.00 | 0.00 | 83 | 1017.1 |
| 20260902130529 | 53 | 0 | 0.0 | 2.0 | 0.00 | 0.00 | 0.00 | 83 | 1017.1 |
| 20260902130053 | 53 | 0 | 0.0 | 2.0 | 0.00 | 0.00 | 0.00 | 83 | 1017.0 |
| 20260902125530 | 53 | 263 | 0.0 | 2.0 | 0.00 | 0.00 | 0.00 | 83 | 1017.1 |
| 20260902125030 | 53 | 0 | 0.0 | 2.0 | 0.00 | 0.00 | 0.00 | 83 | 1017.0 |
| 20260902124552 | 53 | 281 | 0.0 | 2.0 | 0.00 | 0.00 | 0.00 | 83 | 1017.0 |
| 20260902124029 | 53 | 270 | 0.0 | 2.0 | 0.00 | 0.00 | 0.00 | 83 | 1017.0 |
| 20260902123532 | 53 | 0 | 0.0 | 2.0 | 0.00 | 0.00 | 0.00 | 83 | 1017.0 |
| 20260902123047 | 53 | 0 | 0.0 | 2.0 | 0.00 | 0.00 | 0.00 | 83 | 1017.1 |
| 20260902122532 | 53 | 0 | 0.0 | 2.0 | 0.00 | 0.00 | 0.00 | 83 | 1016.9 |
| 20260902122033 | 53 | 0 | 0.0 | 2.0 | 0.00 | 0.00 | 0.00 | 83 | 1017.0 |
| 20260902121549 | 53 | 0 | 0.0 | 2.0 | 0.00 | 0.00 | 0.00 | 83 | 1017.0 |
| 20260902121031 | 53 | 0 | 0.0 | 2.0 | 0.00 | 0.00 | 0.00 | 83 | 1017.0 |
| 20260902120532 | 53 | 0 | 0.0 | 2.0 | 0.00 | 0.00 | 0.00 | 83 | 1016.9 |
| 20260902120048 | 53 | 295 | 0.0 | 2.0 | 0.00 | 0.00 | 0.00 | 83 | 1017.0 |
| 20260902115531 | 53 | 291 | 0.0 | 2.0 | 0.00 | 0.00 | 0.00 | 83 | 1017.0 |
| 20260902115032 | 53 | 0 | 0.0 | 2.0 | 0.00 | 0.00 | 0.00 | 83 | 1016.9 |
| 20260902114611 | 53 | 279 | 0.0 | 2.0 | 0.00 | 0.00 | 0.00 | 83 | 1016.9 |
| 20260902114034 | 53 | 0 | 0.0 | 2.0 | 0.00 | 0.00 | 0.00 | 83 | 1017.1 |
| 20260902113530 | 53 | 0 | 0.0 | 2.0 | 0.00 | 0.00 | 0.00 | 83 | 1016.9 |
| 20260902113047 | 53 | 0 | 0.0 | 2.0 | 0.00 | 0.00 | 0.00 | 83 | 1016.8 |
| 20260902112531 | 53 | 0 | 0.0 | 2.0 | 0.00 | 0.00 | 0.00 | 83 | 1016.8 |
| 20260902112036 | 53 | 0 | 0.0 | 2.0 | 0.00 | 0.00 | 0.00 | 83 | 1016.8 |
| 20260902111548 | 53 | 0 | 0.0 | 2.0 | 0.00 | 0.00 | 0.00 | 83 | 1016.9 |
| 20260902111029 | 53 | 0 | 0.0 | 2.0 | 0.00 | 0.00 | 0.00 | 83 | 1016.8 |
| 20260902110531 | 53 | 0 | 0.0 | 2.0 | 0.00 | 0.00 | 0.00 | 83 | 1016.8 |
| 20260902110053 | 53 | 0 | 0.0 | 2.0 | 0.00 | 0.00 | 0.00 | 83 | 1016.9 |
| 20260902105531 | 53 | 309 | 0.0 | 2.0 | 0.00 | 0.00 | 0.00 | 83 | 1016.8 |
| 20260902105031 | 53 | 275 | 0.0 | 2.0 | 0.00 | 0.00 | 0.00 | 83 | 1017.1 |
| 20260902104556 | 53 | 0 | 0.0 | 2.0 | 0.00 | 0.00 | 0.00 | 83 | 1017.1 |
| 20260902104029 | 53 | 267 | 0.0 | 2.0 | 0.00 | 0.00 | 0.00 | 83 | 1017.0 |
| 20260902103531 | 53 | 273 | 0.0 | 1.0 | 0.00 | 0.00 | 0.00 | 83 | 1017.0 |
| 20260902103059 | 53 | 0 | 0.0 | 1.0 | 0.00 | 0.00 | 0.00 | 83 | 1017.1 |
| 20260902102531 | 53 | 0 | 0.0 | 1.0 | 0.00 | 0.00 | 0.00 | 83 | 1017.1 |
| 20260902102030 | 53 | 0 | 0.0 | 1.0 | 0.00 | 0.00 | 0.00 | 82 | 1017.2 |
| 20260902101548 | 53 | 0 | 0.0 | 1.0 | 0.00 | 0.00 | 0.00 | 82 | 1017.2 |
| 20260902101032 | 54 | 0 | 0.0 | 1.0 | 0.00 | 0.00 | 0.00 | 82 | 1017.3 |
| 20260902100533 | 54 | 273 | 0.0 | 1.0 | 0.00 | 0.00 | 0.00 | 82 | 1017.2 |
| 20260902100049 | 54 | 275 | 0.0 | 1.0 | 0.00 | 0.00 | 0.00 | 82 | 1017.2 |